Погода в Мондах

Россия / Республика Бурятия     51°40′32″N   100°59′46″E
темп.,
°C
ветер,
м/с
пор.,
м/с
влажн.,
%
обл.,
%
осадки,
мм/ч
давл.,
гПа
погр.,
м
15 апреля, чт
чт1523:00−13зсз33785 0.0 102434
02:00−14сз3375100 0.0 102339
05:00−11зюз2370100 0.0 1018166
08:00−10з3788100 0.8 1016577
11:00−6ссз81353100 1.0 10142433
14:00−6ссз91251100 1.3 10182245
17:00−7ссз71253100 0.3 10202169
20:00−9ссз456877 0.3 1024166
16 апреля, пт
пт1623:00−13ссз33715 0.0 102932
02:00−13ссз33705 0.0 102928
05:00−13сз337123 0.0 103039
08:00−9зсз33655 0.0 1027123
11:00−4зсз33505 0.0 1022437
14:000зюз234726 0.0 1018746
17:00+1з23521 0.0 1016785
20:00−4з22725 0.0 101916
17 апреля, сб
сб1723:00−6зсз22765 0.0 102024
02:00−6з226920 0.0 101821
05:00−6зсз22750 0.0 101721
08:00−3сз22660 0.0 101589
11:00+2з23481 0.0 1010729
14:00+4зюз23445 0.0 10071245
17:00+4з2639100 0.0 10061595
20:00+1с1154100 0.0 100715
18 апреля, вс
вс1823:00−1ссз1153100 0.0 100814
02:00−4в3497100 0.1 1011262
05:00−6вюв3396100 0.3 1012217
08:00−5юв218845 0.3 1012132
11:000юз2369100 0.1 1007637
14:00+4зсз574168 0.3 10041932
17:00+2ссз354298 0.0 10061106
20:00+1юз2247100 0.0 100740
19 апреля, пн
пн1923:00−1зюз115727 0.0 100915
02:00−3ююз22705 0.0 101112
05:00−4зюз227714 0.0 101217
08:00−2ю237038 0.0 1012174
11:00+3ю35460 0.0 10071008
14:00+6юз511316 0.0 10042096
17:00+7зюз5112616 0.0 10032209
20:00+4юз35431 0.1 1003175